User: anonymous   Login
Location: Irma
(52.9170°N, 111.2330°W)
Time: 21:41:58
(UTC-07:00)
Language:

Meteor 1-24 Rocket - Orbit

View from above orbital plane
View from above orbital plane
View from above satellite
View from above satellite

Ground track
Ground track

The orbit data is extracted from the following two-line orbital elements,

1 08800U 76032B   17018.48825844  .00000122  00000-0  60196-4 0  9995
2 08800  81.2509   2.9650 0093297 248.5997 110.5201 14.10083208 97080
Epoch (UTC): 18 January 2017 11:43:05
Eccentricity: 0.0093297
inclination: 81.2509°
perigee height: 791 km
apogee height: 926 km
right ascension of ascending node: 2.9650°
argument of perigee: 248.5997°
revolutions per day: 14.10083208
mean anomaly at epoch: 110.5201°
orbit number at epoch: 9708

The dashed part of the orbit path shows where the satellite is in the earth's shadow,  

DLR